[[{"header":{"parameterUnit":"m.s-1","parameterCategory":1,"la1":30.2991,"la2":30.254,"lo1":-89.0895,"lo2":-89.0444,"dy":0.0017,"dx":0.0017,"nx":28,"ny":28,"refTime":"2024-04-03T21:00:00:Z","depth":0,"parameterNumber":2,"parameterNumberName":"U-component_of_WINDS"},"data":[0,0,0,0,0,0,0,0,0,0,0,0,0,0,0,0,0,0,0,0,0,0,0,0,0,0,0,0,0,0,0,0,0,0,0,0,0,0,0,0,0,0,0,0,0,0,0,0,0,0,0,0,0,0,0,0,0,0,2.8849,2.8849,0,2.8874,2.8875,2.8875,2.8749,2.8745,2.8742,2.8738,2.8766,2.877,2.8774,0,0,0,0,0,0,0,0,0,0,0,0,0,2.8695,2.8698,2.8849,2.8849,2.885,2.8874,2.8875,2.8875,2.8749,2.8745,2.8741,2.8736,2.8764,2.8769,2.8774,0,0,0,0,0,0,0,0,0,0,0,0,0,2.8745,2.8699,2.8849,2.879,2.8785,2.8874,2.8875,2.8875,2.875,2.8745,2.8739,2.8734,2.8763,2.8769,2.8775,2.8923,0,0,2.8794,2.8796,0,0,0,0,0,0,0,0,2.8743,2.8751,2.8798,2.8794,2.8789,2.8803,2.883,2.8891,2.8752,2.8764,2.8738,2.8732,2.8783,2.8787,2.8804,2.8924,2.8925,2.8794,2.8798,2.8801,2.8802,0,0,0,0,0,0,0,2.8739,2.8749,2.8859,2.8799,2.8793,2.8763,2.8764,2.8841,2.8804,2.8762,2.8753,2.8758,2.8779,2.8798,2.8803,2.8926,2.8794,2.88,2.8803,2.8806,2.9171,2.9177,0,0,0,0,0,0,2.8743,2.8747,2.8858,2.886,2.8752,2.877,2.8772,2.8804,2.8802,2.8797,2.8762,2.8752,2.879,2.8796,2.8804,2.8979,2.8801,2.8807,2.881,2.9165,2.9173,2.9179,0,0,0,0,0,0,2.874,2.8754,2.8857,2.8801,2.8812,2.8779,2.8816,2.8807,2.8826,2.8802,2.8795,2.8789,2.8786,2.8795,2.8895,2.8978,2.8809,2.8815,2.9158,2.9168,2.9176,2.9329,0,0,0,0,0,0,2.8737,2.8754,2.8809,2.8803,2.8815,2.8947,2.8821,2.8812,2.8837,2.8823,2.8825,2.882,2.8782,2.8886,2.8901,2.8983,2.882,2.9151,2.9162,2.9173,2.9316,2.9342,2.9364,0,0,0,0,0,2.8731,2.8851,2.8813,2.8827,2.8883,2.8952,2.8959,2.8913,2.8844,2.89,2.8885,2.882,2.8966,2.8897,2.8913,2.8999,2.9145,2.9159,2.9172,2.9306,2.9337,2.9364,0,0,0,0,0,0,2.8868,2.8849,2.8806,2.8927,2.8943,2.8931,2.8999,2.8947,2.8982,2.8968,2.8909,2.8911,2.9021,2.9019,2.8943,2.9143,2.9044,2.9061,2.914,2.917,2.9193,2.9192,2.8825,0,0,0,0,0,2.8912,2.8968,2.8949,2.9058,2.9068,2.9033,2.9061,2.9024,2.9037,2.9043,2.9035,2.9052,2.9101,2.9135,2.9179,2.9315,2.9315,2.9382,2.9406,2.9426,2.9442,2.9516,2.9546,2.9223,2.9223,2.9223,0,0,2.9003,2.9,2.904,2.9086,2.9093,2.9154,2.9039,2.9108,2.9154,2.9054,2.9148,2.9143,2.9157,2.9277,2.9328,2.9278,2.9531,2.9443,2.9459,2.9464,2.9533,2.9564,2.9591,2.9232,2.9231,2.9229,0,0,2.9202,2.9205,2.9297,2.9307,2.9319,2.9296,2.9318,2.9315,2.9308,2.9401,2.9329,2.9382,2.9468,2.9482,2.95,2.9707,2.965,2.9723,2.9848,2.9922,2.9947,2.9969,3.0045,3.0073,2.9739,2.9739,2.9739,0,2.9315,2.9404,2.9351,2.9426,2.9449,2.9362,2.9456,2.9468,2.9495,2.9514,2.9457,2.9565,2.9568,2.969,2.9741,2.9758,2.9783,2.9723,2.9948,2.9969,2.999,3.0061,3.009,2.9748,2.9747,2.9746,2.9745,0,2.9543,2.9606,2.9679,2.9707,2.9738,2.9823,2.9784,2.9822,2.9783,2.9766,2.9864,2.9864,2.9908,2.9934,2.9896,3.0053,3.0021,2.9957,2.9857,3.003,3.0097,3.0124,2.9761,2.9758,2.9755,2.9753,0,0,2.9828,2.9827,2.9855,2.9868,2.9877,2.9925,3.0006,3.0049,3.0084,3.0105,3.0173,3.0249,3.019,3.0211,3.0174,3.0239,3.0406,3.0166,3.0166,3.0213,3.0581,3.063,3.0663,3.0367,3.0372,3.0376,3.058,0,3.0024,3.0162,3.0118,3.0258,3.0317,3.0236,3.0306,3.032,3.0307,3.0356,3.034,3.0396,3.0313,3.0326,3.0385,3.0373,3.0479,3.0357,3.0431,3.0435,3.0432,3.0697,3.0749,3.0942,3.0606,3.061,3.0613,0,3.0272,3.0304,3.0451,3.0451,3.0474,3.0538,3.0576,3.0622,3.0637,3.0623,3.0648,3.0598,3.0679,3.0578,3.069,3.0609,3.0636,3.0635,3.0641,3.0648,3.0536,3.0713,3.1002,3.1032,3.0653,3.065,3.0647,0,3.0468,3.0548,3.0646,3.066,3.0662,3.071,3.0713,3.0722,3.0752,3.0784,3.0803,3.0845,3.0869,3.0903,3.0867,3.0796,3.0985,3.088,3.0978,3.0979,3.1022,3.102,3.1322,3.1038,3.1037,3.1036,3.1036,0,3.0693,3.0787,3.0735,3.0796,3.0899,3.0847,3.0951,3.0945,3.0954,3.1014,3.0945,3.1003,3.095,3.1004,3.0976,3.1074,3.1085,3.1077,3.1069,3.1084,3.1086,3.1103,3.1089,3.1044,3.1042,3.1041,3.104,0,3.093,3.0899,3.1002,3.0996,3.0997,3.1073,3.1069,3.1126,3.1107,3.1184,3.1199,3.1171,3.123,3.1197,3.1258,3.1239,3.1368,3.134,3.1363,3.1357,3.1457,3.1449,3.1782,3.1824,3.151,3.1513,3.1516,0,3.1077,3.1147,3.1149,3.1184,3.1192,3.1249,3.1279,3.1231,3.1266,3.1289,3.1344,3.1397,3.1437,3.1536,3.1522,3.1569,3.1543,3.1657,3.155,3.1564,3.1548,3.1545,3.1553,3.1679,3.1683,3.1686,3.1688,0,3.1341,3.1323,3.1368,3.141,3.1448,3.1478,3.1502,3.1535,3.1488,3.1531,3.159,3.1622,3.1684,3.1739,3.178,3.1784,3.173,3.1722,3.1747,3.1765,3.1776,3.1774,3.1424,3.1715,3.1712,3.171,3.1709,3.1708,3.1539,3.1598,3.161,3.1663,3.1677,3.1702,3.1756,3.1745,3.1794,3.1841,3.181,3.1882,3.1897,3.1945,3.1957,3.2013,3.1968,3.2004,3.2014,3.2024,3.2039,3.1766,3.202,3.2019,3.2019,3.2018,3.2017,0,3.1801,3.1805,3.1855,3.1892,3.1935,3.1879,3.1904,3.1944,3.2008,3.2026,3.2067,3.2138,3.2191,3.2182,3.223,3.2277,3.2254,3.2292,3.2289,3.2291,3.2075,3.205,3.231,3.231,3.231,3.231,3.231,3.231,3.1943,3.2041,3.2025,3.213,3.2133,3.2202,3.2222,3.2245,3.226,3.2341,3.2385,3.2379,3.2387,3.2436,3.2483,3.2479,3.2501,3.2549,3.2537,3.2335,3.2306,3.2279,3.2254,3.2554,3.2554,3.2748,3.275,3.2751]},{"header":{"parameterUnit":"m.s-1","parameterCategory":1,"la1":30.2991,"la2":30.254,"lo1":-89.0895,"lo2":-89.0444,"dy":0.0017,"dx":0.0017,"nx":28,"ny":28,"refTime":"2024-04-03T21:00:00:Z","depth":0,"parameterNumber":3,"parameterNumberName":"V-component_of_WINDS"},"data":[0,0,0,0,0,0,0,0,0,0,0,0,0,0,0,0,0,0,0,0,0,0,0,0,0,0,0,0,0,0,0,0,0,0,0,0,0,0,0,0,0,0,0,0,0,0,0,0,0,0,0,0,0,0,0,0,0,0,-2.5404,-2.5405,0,-2.5548,-2.555,-2.5552,-2.558,-2.5579,-2.5578,-2.5577,-2.5724,-2.5728,-2.5733,0,0,0,0,0,0,0,0,0,0,0,0,0,-2.5152,-2.5157,-2.5404,-2.5406,-2.5407,-2.5548,-2.555,-2.5552,-2.558,-2.5579,-2.5578,-2.5576,-2.5722,-2.5728,-2.5734,0,0,0,0,0,0,0,0,0,0,0,0,0,-2.5275,-2.5158,-2.5403,-2.5439,-2.5443,-2.5548,-2.555,-2.5552,-2.5581,-2.5579,-2.5577,-2.5576,-2.572,-2.5727,-2.5735,-2.5814,0,0,-2.5757,-2.5761,0,0,0,0,0,0,0,0,-2.5268,-2.5285,-2.5432,-2.5436,-2.5442,-2.5545,-2.5515,-2.564,-2.5581,-2.5528,-2.5577,-2.5575,-2.5665,-2.5677,-2.5708,-2.5821,-2.5827,-2.5758,-2.5762,-2.5766,-2.5768,0,0,0,0,0,0,0,-2.526,-2.5279,-2.5461,-2.5434,-2.544,-2.5447,-2.5463,-2.5539,-2.5604,-2.5533,-2.5535,-2.5552,-2.5668,-2.5701,-2.5712,-2.5829,-2.5758,-2.5764,-2.5769,-2.5772,-2.6015,-2.6016,0,0,0,0,0,0,-2.5245,-2.5271,-2.5456,-2.5465,-2.5349,-2.5453,-2.547,-2.5513,-2.5604,-2.5616,-2.5553,-2.5553,-2.5689,-2.5703,-2.5717,-2.5815,-2.5766,-2.5773,-2.5777,-2.6013,-2.6015,-2.6017,0,0,0,0,0,0,-2.524,-2.5261,-2.5451,-2.5369,-2.5394,-2.5459,-2.5507,-2.5517,-2.555,-2.5619,-2.5631,-2.5575,-2.5688,-2.5706,-2.579,-2.5821,-2.5776,-2.5783,-2.601,-2.6013,-2.6016,-2.6013,0,0,0,0,0,0,-2.5232,-2.5259,-2.529,-2.537,-2.5398,-2.5521,-2.5509,-2.5521,-2.5563,-2.5563,-2.5643,-2.5654,-2.5688,-2.5778,-2.5797,-2.583,-2.5788,-2.6008,-2.6012,-2.6015,-2.6011,-2.6016,-2.602,0,0,0,0,0,-2.5223,-2.5283,-2.5292,-2.5314,-2.5438,-2.5523,-2.5539,-2.5577,-2.5565,-2.5597,-2.5641,-2.5652,-2.5815,-2.5787,-2.5808,-2.5844,-2.6006,-2.601,-2.6015,-2.6009,-2.6015,-2.602,0,0,0,0,0,0,-2.5205,-2.5294,-2.5304,-2.5392,-2.545,-2.5527,-2.5568,-2.5582,-2.5644,-2.5643,-2.5687,-2.5705,-2.5785,-2.5823,-2.579,-2.5925,-2.591,-2.5918,-2.5898,-2.5904,-2.5908,-2.5897,-2.5795,0,0,0,0,0,-2.5212,-2.5274,-2.5348,-2.5418,-2.5447,-2.5502,-2.5541,-2.5566,-2.5627,-2.5651,-2.5702,-2.5761,-2.5825,-2.5867,-2.593,-2.6017,-2.6034,-2.6052,-2.6056,-2.606,-2.6067,-2.6115,-2.6124,-2.6032,-2.6032,-2.6032,0,0,-2.5225,-2.5282,-2.5318,-2.5416,-2.5464,-2.5526,-2.5523,-2.5589,-2.5636,-2.5661,-2.5743,-2.5782,-2.5851,-2.5936,-2.5976,-2.597,-2.6096,-2.6066,-2.6068,-2.6073,-2.6121,-2.6129,-2.6137,-2.6035,-2.6034,-2.6034,0,0,-2.5282,-2.5331,-2.5395,-2.5443,-2.5515,-2.5552,-2.5567,-2.5643,-2.567,-2.5753,-2.5773,-2.583,-2.594,-2.5988,-2.6027,-2.6103,-2.6114,-2.6122,-2.6146,-2.6192,-2.6199,-2.6206,-2.6232,-2.6241,-2.6129,-2.6129,-2.6129,0,-2.529,-2.5385,-2.5426,-2.5492,-2.5534,-2.556,-2.5625,-2.5669,-2.5758,-2.5787,-2.5779,-2.5918,-2.5966,-2.6063,-2.6081,-2.6112,-2.6131,-2.6113,-2.6195,-2.6202,-2.6209,-2.6235,-2.6244,-2.6129,-2.6129,-2.6129,-2.6129,0,-2.5391,-2.5457,-2.55,-2.5585,-2.5633,-2.5698,-2.5748,-2.5791,-2.5811,-2.5849,-2.5933,-2.5992,-2.6067,-2.6092,-2.6113,-2.6192,-2.6186,-2.6186,-2.6171,-2.6217,-2.6242,-2.6252,-2.613,-2.613,-2.613,-2.6129,0,0,-2.544,-2.5547,-2.5562,-2.5601,-2.5683,-2.5735,-2.5801,-2.5875,-2.5911,-2.5972,-2.6028,-2.6121,-2.6122,-2.6166,-2.6193,-2.6234,-2.6289,-2.6229,-2.6231,-2.6237,-2.6379,-2.6378,-2.6389,-2.6298,-2.63,-2.6301,-2.6373,0,-2.5506,-2.5624,-2.5663,-2.5762,-2.5823,-2.5849,-2.5907,-2.5963,-2.6,-2.6058,-2.6099,-2.6164,-2.616,-2.6187,-2.6229,-2.6273,-2.6318,-2.6269,-2.635,-2.6352,-2.6331,-2.6402,-2.6401,-2.6466,-2.6383,-2.6385,-2.6386,0,-2.5598,-2.5661,-2.5766,-2.584,-2.5867,-2.5918,-2.5989,-2.6044,-2.6108,-2.6133,-2.6182,-2.6206,-2.6275,-2.6257,-2.6353,-2.6319,-2.6355,-2.6382,-2.6385,-2.6394,-2.6371,-2.6411,-2.6487,-2.6497,-2.6402,-2.6401,-2.64,0,-2.5622,-2.5733,-2.581,-2.5843,-2.5931,-2.5967,-2.6005,-2.6068,-2.611,-2.6173,-2.62,-2.627,-2.6308,-2.6361,-2.6402,-2.6385,-2.6495,-2.648,-2.6517,-2.6516,-2.6538,-2.6536,-2.662,-2.6562,-2.6562,-2.6562,-2.6562,0,-2.5691,-2.5754,-2.5822,-2.5869,-2.594,-2.5984,-2.6054,-2.6094,-2.615,-2.6205,-2.6232,-2.6283,-2.6336,-2.6394,-2.6427,-2.6502,-2.6519,-2.654,-2.6548,-2.6537,-2.6534,-2.656,-2.6556,-2.6565,-2.6564,-2.6563,-2.6563,0,-2.573,-2.5778,-2.5863,-2.594,-2.5961,-2.601,-2.6077,-2.6123,-2.6162,-2.6232,-2.6251,-2.6311,-2.6381,-2.6428,-2.6517,-2.6539,-2.662,-2.6628,-2.6599,-2.6602,-2.6636,-2.6632,-2.6739,-2.6755,-2.6687,-2.6688,-2.6688,0,-2.577,-2.5819,-2.5902,-2.5941,-2.598,-2.6043,-2.6086,-2.6131,-2.6175,-2.6253,-2.629,-2.6362,-2.6422,-2.6532,-2.6584,-2.6653,-2.6661,-2.6694,-2.6672,-2.6659,-2.6661,-2.6657,-2.6662,-2.6697,-2.6698,-2.6698,-2.6699,0,-2.5837,-2.5858,-2.592,-2.599,-2.6041,-2.6098,-2.6155,-2.6186,-2.6241,-2.6289,-2.6361,-2.6408,-2.6499,-2.657,-2.6644,-2.6683,-2.67,-2.6705,-2.6717,-2.6706,-2.6687,-2.6697,-2.6607,-2.6703,-2.6702,-2.6702,-2.6702,-2.6701,-2.5877,-2.5922,-2.5987,-2.6055,-2.6103,-2.6156,-2.6204,-2.6248,-2.6309,-2.6388,-2.6411,-2.6486,-2.6549,-2.665,-2.6691,-2.675,-2.6746,-2.6764,-2.6768,-2.6771,-2.6771,-2.6679,-2.6763,-2.6763,-2.6763,-2.6763,-2.6763,0,-2.5945,-2.5988,-2.605,-2.6129,-2.6183,-2.6195,-2.6259,-2.6302,-2.6368,-2.6426,-2.6484,-2.6567,-2.6636,-2.6693,-2.6765,-2.6801,-2.681,-2.6818,-2.6815,-2.6824,-2.677,-2.6752,-2.6809,-2.6809,-2.6809,-2.6809,-2.6809,-2.6809,-2.5986,-2.6062,-2.6091,-2.6192,-2.6235,-2.6308,-2.6344,-2.6393,-2.644,-2.6531,-2.6588,-2.6625,-2.6683,-2.6759,-2.6823,-2.6838,-2.6862,-2.6868,-2.6885,-2.6833,-2.6828,-2.6823,-2.6806,-2.6873,-2.6873,-2.6934,-2.6934,-2.6935]}]]